Theta_e
316 312 311 307 300 296 293 297 299 300 301 304 302 302 302 302 299 298 313 322 331 335 341 351 353 354 355 354 353 353 352 351 351 351 351 352 351 348 346 346 346 343 341 339 339 339 337 337 337
312 312 307 300 293 290 293 296 298 300 302 303 302 303 302 302 306 310 316 324 333 336 343 350 349 353 354 354 353 352 352 352 350 349 349 348 348 347 346 344 345 341 340 338 337 335 334 333 333
311 306 303 295 290 289 292 296 298 300 301 302 302 304 304 305 308 312 317 325 334 337 344 348 347 354 354 354 352 352 352 352 349 348 347 346 345 346 347 345 343 340 339 337 335 333 330 328 328
308 304 298 292 292 294 295 295 298 299 301 302 302 302 304 309 310 315 320 329 334 337 343 345 348 353 352 353 352 351 351 352 351 348 347 347 348 347 342 343 341 337 335 334 332 331 328 325 323
301 299 293 291 293 295 295 298 298 299 300 301 301 301 303 308 315 321 323 331 332 336 341 344 346 351 352 351 351 350 350 351 351 350 349 346 345 342 339 339 339 337 335 333 331 329 325 322 320
299 296 291 289 292 295 296 297 298 298 298 300 300 301 304 306 312 319 323 329 331 335 338 342 338 343 347 348 348 348 348 349 349 348 348 347 344 341 337 336 336 335 333 331 330 327 323 319 318
296 291 289 289 290 293 296 297 297 297 297 300 302 299 305 305 307 316 321 321 330 334 336 339 341 341 337 342 343 344 346 346 346 345 347 344 342 340 338 336 335 332 332 331 328 325 322 318 316
296 293 290 289 290 293 297 298 298 298 299 301 303 298 302 302 309 317 319 319 320 325 332 335 338 341 344 346 336 338 341 341 342 340 339 336 336 335 334 331 334 332 332 331 329 324 321 319 313
297 289 286 289 290 293 298 297 299 299 298 299 301 301 300 302 307 306 307 305 307 305 311 323 334 337 340 343 340 332 334 336 337 337 332 332 337 334 332 328 331 333 333 331 329 324 321 314 307
293 288 289 292 293 295 297 296 298 298 297 298 299 300 298 298 298 298 298 298 299 300 302 305 313 332 337 339 341 340 340 343 343 343 343 339 334 331 329 325 326 329 329 330 328 324 316 306 300
295 290 292 294 296 297 297 296 298 296 296 298 298 296 296 296 296 296 296 296 296 298 300 301 302 306 331 337 339 340 339 338 341 338 337 336 332 330 327 326 326 326 321 322 321 318 314 307 302
293 296 295 298 298 297 296 297 296 297 298 297 295 295 294 294 294 294 294 295 295 297 298 300 301 303 309 334 337 338 338 336 337 336 335 331 329 326 325 325 325 324 322 320 317 314 313 309 303
295 295 296 297 297 295 295 295 295 295 293 295 295 294 293 292 293 294 294 295 295 296 297 299 301 304 307 322 334 335 335 334 334 332 331 332 329 325 324 323 322 321 319 319 316 316 313 310 305
294 294 295 295 295 295 295 293 294 294 294 293 293 292 291 291 291 292 292 293 293 295 296 298 302 308 311 318 331 331 332 332 332 332 330 328 328 327 324 323 323 319 319 315 314 312 313 310 304
294 292 293 293 293 293 294 292 292 293 292 291 290 290 290 290 291 290 291 291 292 293 295 297 303 311 320 322 326 327 327 327 326 325 325 324 324 324 323 323 323 322 315 313 310 307 306 307 303
290 290 288 291 293 293 293 290 291 292 292 289 289 289 289 289 289 290 290 291 292 292 293 298 302 315 318 317 317 316 314 313 313 314 316 316 319 322 321 319 318 317 315 312 310 307 306 306 302
287 285 285 289 292 292 292 290 290 290 291 288 288 288 288 288 288 289 289 289 290 291 293 296 299 306 310 309 308 307 307 306 306 306 307 309 311 314 314 313 312 313 311 309 307 304 302 302 301
285 284 285 286 290 291 289 290 288 289 289 287 286 286 287 287 287 288 288 289 290 290 292 294 296 297 304 305 304 303 301 299 298 297 297 299 303 307 308 308 307 309 307 306 305 302 300 297 296
287 285 286 287 290 289 289 289 287 288 287 286 286 286 286 286 287 288 287 288 288 289 290 291 293 294 298 299 299 298 295 296 294 294 293 294 295 298 301 303 302 304 303 302 301 300 299 298 296
286 284 284 287 289 289 287 288 286 287 286 287 285 285 285 286 286 286 286 286 286 286 288 289 290 292 294 295 295 295 293 292 291 290 289 289 291 293 294 295 297 298 299 298 298 298 298 297 295
284 284 284 286 287 286 285 285 284 285 286 286 286 286 286 285 284 284 284 284 285 284 284 286 288 289 290 292 293 292 291 289 287 287 286 287 288 288 289 290 292 292 293 293 295 295 296 295 297
283 288 287 286 285 282 284 280 284 284 284 285 285 285 285 284 284 284 283 283 283 283 284 285 286 286 286 288 287 286 285 283 284 285 286 286 287 286 287 287 287 288 288 288 291 292 293 295 292
287 289 287 286 283 282 282 281 283 283 282 283 284 284 284 284 284 283 283 283 283 283 283 283 284 284 285 285 286 285 283 284 284 284 285 285 285 286 285 285 286 285 286 286 286 287 288 290 291
288 286 284 282 281 277 282 282 281 281 283 284 284 284 285 284 283 283 282 282 282 283 283 283 283 282 283 284 283 283 283 283 283 283 283 283 284 284 284 284 284 285 285 284 285 285 285 285 286
287 286 280 277 276 278 280 279 283 285 286 286 285 285 285 284 283 282 281 281 282 282 282 283 282 281 282 283 282 283 282 282 282 282 282 282 282 282 282 283 283 283 283 284 284 284 284 284 284
285 286 281 275 273 276 281 278 284 286 286 286 287 286 285 284 283 282 281 281 281 281 282 282 282 281 282 282 282 282 283 283 282 282 282 282 282 282 282 282 282 282 282 282 282 282 282 283 283
285 283 286 279 274 276 279 282 285 285 284 284 284 284 284 283 283 283 282 281 280 280 281 282 281 281 281 282 282 282 282 282 281 281 281 281 281 282 281 281 281 281 281 281 281 280 280 281 281
286 288 282 280 272 271 276 278 280 283 283 282 282 284 284 284 283 283 282 281 281 281 281 281 282 281 282 282 282 282 281 281 281 281 280 280 280 280 280 280 280 280 280 280 279 279 279 279 279
284 284 283 283 279 273 270 276 283 284 284 283 284 285 285 284 284 283 283 282 281 281 280 280 281 281 281 281 281 281 281 281 281 280 280 280 280 279 279 279 278 278 278 278 278 278 278 278 278
285 285 284 280 276 276 277 277 285 285 285 285 285 286 285 285 285 284 282 282 281 280 280 280 280 280 281 281 281 281 281 280 280 279 279 279 278 278 277 277 276 276 276 276 276 276 277 277 276
Wind_Speed
3 3 3 5 5 5 1 0 1 1 1 1 3 2 2 2 3 2 1 6 2 8 11 11 10 11 15 12 11 10 10 11 11 11 10 11 12 11 12 12 11 11 13 11 11 10 11 11 10
2 2 5 3 6 4 3 3 1 0 1 1 1 1 2 0 1 3 2 5 2 9 11 10 9 10 13 13 12 10 10 10 10 9 9 9 9 9 10 11 11 12 12 10 10 10 10 10 9
3 4 4 5 4 4 3 3 2 2 1 1 1 1 1 2 2 2 3 6 4 7 9 8 9 10 12 13 15 13 9 9 9 9 9 8 8 8 7 7 11 12 11 10 8 9 10 10 10
3 4 5 6 3 1 1 3 2 3 2 2 1 2 2 1 2 3 3 6 5 6 7 8 10 9 11 11 13 13 12 10 10 9 9 10 10 11 10 11 11 12 11 8 6 8 10 11 10
5 3 5 4 1 1 3 3 2 0 0 2 1 1 2 3 2 2 3 4 4 5 5 7 9 9 8 10 11 11 12 11 11 12 9 10 10 9 8 8 9 8 8 7 5 7 9 10 9
5 3 5 2 2 2 3 1 2 1 1 1 2 1 1 4 4 4 3 2 2 3 3 3 4 4 6 8 9 11 11 9 8 10 12 12 10 7 5 4 4 5 6 4 4 7 8 9 9
7 5 5 5 2 2 2 3 3 1 2 1 1 2 1 4 7 3 4 5 5 3 2 2 4 4 3 5 5 7 8 8 8 7 11 11 11 8 5 5 4 3 3 3 3 6 7 8 8
6 5 4 2 4 3 1 1 1 1 1 4 2 1 1 4 6 5 6 7 7 5 4 2 2 5 6 5 5 6 6 6 6 5 7 8 8 7 6 5 3 2 2 4 4 6 6 8 9
3 6 2 5 6 3 1 2 1 1 2 4 3 4 6 9 9 9 6 8 8 9 9 7 4 5 4 4 5 6 6 5 6 4 5 8 5 6 4 2 2 2 4 6 6 5 8 8 8
5 4 7 4 4 3 1 1 3 2 4 2 2 7 12 11 12 13 11 10 11 13 12 9 8 6 4 3 4 4 4 5 5 5 6 5 4 3 4 5 3 4 6 5 5 7 8 6 3
2 4 3 2 3 2 2 1 2 2 1 3 3 4 9 12 13 12 10 7 8 9 8 11 9 8 6 4 3 2 2 2 4 5 3 2 3 3 2 2 2 2 4 2 4 3 3 4 3
2 2 3 1 2 2 1 1 2 3 1 5 9 6 5 12 12 11 11 11 11 10 10 11 10 8 6 3 3 2 2 2 1 2 3 4 3 3 3 3 3 2 2 3 3 2 2 3 3
2 1 3 2 4 4 2 4 3 3 7 8 10 13 13 11 11 9 8 7 10 10 11 12 10 8 6 6 3 3 2 1 1 1 1 2 4 5 4 3 3 3 3 2 2 2 1 1 2
2 2 4 5 3 3 4 1 4 2 6 10 11 11 10 11 10 8 11 11 12 12 12 12 11 9 4 4 3 3 4 3 3 3 2 1 1 1 4 4 5 4 3 2 2 3 3 0 1
3 3 6 2 1 3 6 2 4 3 6 9 10 8 9 10 11 11 9 8 11 11 13 13 11 10 6 8 5 5 5 7 6 6 7 6 4 3 3 2 3 2 2 3 2 2 1 3 1
3 4 3 1 2 2 3 3 3 6 5 7 7 6 7 9 8 9 9 9 11 10 12 10 9 11 13 13 11 9 11 9 9 9 9 13 11 8 5 3 4 3 2 2 2 2 2 3 2
5 3 4 7 2 2 2 4 4 7 8 7 6 6 6 7 10 11 11 10 11 11 12 13 12 12 14 14 12 12 13 10 9 9 9 12 12 11 9 7 6 4 5 4 3 3 3 3 4
7 4 4 5 2 2 1 8 4 7 9 5 4 5 7 9 10 10 11 10 10 10 11 11 10 11 9 9 10 10 11 11 10 10 11 13 11 11 8 7 7 7 5 5 3 4 2 2 2
6 4 5 2 3 0 5 7 3 3 5 4 4 6 7 7 5 7 8 8 8 11 13 14 13 11 7 6 6 8 9 9 10 10 15 15 13 13 10 8 8 7 8 5 4 2 3 3 2
4 4 5 4 2 5 1 7 2 3 2 2 4 5 6 4 8 9 11 11 12 11 10 11 12 12 10 5 5 5 6 9 9 9 13 15 15 15 12 12 10 11 8 9 9 6 2 1 3
5 6 5 6 0 0 2 6 4 2 4 5 4 4 4 4 5 7 10 11 10 13 12 11 10 11 10 8 6 7 7 6 8 9 10 12 13 13 14 14 11 12 10 9 10 9 9 5 4
6 8 6 5 4 5 1 6 4 4 4 5 6 6 7 6 3 3 5 7 9 9 9 10 11 11 11 10 13 15 11 10 6 8 7 9 12 14 13 13 12 11 9 11 9 9 8 6 7
6 6 7 3 4 1 2 1 7 4 7 7 7 6 5 5 5 5 3 5 5 6 7 8 10 13 12 11 11 11 12 8 6 7 10 10 10 12 13 12 12 12 9 10 11 11 11 8 6
11 8 7 5 3 2 7 7 5 7 7 8 9 9 9 8 6 4 4 4 5 5 7 8 11 11 11 11 10 12 11 9 9 8 8 7 7 7 12 11 10 10 10 10 9 9 11 9 7
2 7 2 1 1 6 1 3 7 4 3 10 17 13 10 8 7 6 5 5 4 5 5 6 7 9 8 9 10 11 11 11 12 8 7 8 7 7 10 10 10 8 9 9 9 9 9 8 7
7 8 6 8 5 3 1 7 7 2 1 3 7 11 9 9 7 7 7 6 5 5 5 6 7 7 6 8 9 8 8 7 7 8 7 6 6 6 7 8 8 9 9 9 9 6 6 7 7
7 5 3 8 2 2 5 5 3 3 1 2 9 12 12 10 9 9 7 7 6 6 6 7 7 6 5 7 7 7 7 8 8 8 7 6 6 6 8 8 9 9 8 9 9 6 8 7 7
4 8 4 3 3 6 3 4 6 6 7 7 10 15 12 10 9 8 8 8 6 6 6 6 6 7 6 6 5 6 7 7 7 6 7 7 6 6 7 7 7 7 7 7 8 7 7 7 7
4 4 3 5 4 6 2 6 5 6 10 15 15 15 14 13 12 11 9 7 7 6 7 7 6 6 6 6 5 7 6 6 6 7 6 6 6 6 7 7 7 7 7 7 7 7 8 9 9
1 7 8 7 6 3 2 7 2 3 8 12 14 14 11 10 12 10 10 9 9 9 7 7 7 7 7 5 5 6 6 6 6 6 5 4 5 5 5 6 6 7 7 8 8 9 9 10 11
Wind_Direction
20 25 70 43 61 65 14 218 277 342 359 253 104 121 138 163 150 157 247 191 239 169 170 173 171 158 142 143 141 139 136 133 127 122 115 111 109 105 104 106 94 79 70 61 50 49 49 49 46
7 54 47 81 82 68 286 268 210 257 275 46 103 56 65 16 260 306 43 164 156 159 168 172 170 160 143 150 146 148 147 143 138 134 129 121 117 115 117 116 104 87 82 62 45 41 41 40 38
110 42 79 87 105 147 176 238 250 304 292 116 98 60 143 354 10 357 353 165 120 158 169 171 172 172 162 166 164 155 152 147 142 139 132 126 131 120 118 133 103 88 77 65 33 30 32 26 25
68 20 48 77 107 189 72 307 244 340 18 38 139 63 313 332 349 318 330 141 137 163 169 175 177 182 178 185 168 159 156 158 154 153 145 130 107 107 93 83 94 94 86 74 34 29 23 21 16
37 57 59 82 313 228 253 275 285 28 341 324 333 347 12 22 344 58 96 129 134 163 181 189 186 181 185 201 165 166 162 170 178 164 164 143 124 116 104 88 90 86 84 76 41 36 26 22 18
48 87 64 157 250 292 268 289 275 6 85 317 61 69 47 326 7 16 65 83 68 157 167 195 210 199 192 206 177 173 172 183 218 157 164 160 140 136 111 80 69 69 56 47 36 47 34 31 32
104 78 164 158 203 290 204 328 148 157 337 79 173 99 171 8 344 29 56 48 45 61 129 171 195 218 226 213 204 180 184 197 221 180 194 156 139 139 123 101 80 84 104 70 36 58 41 35 33
103 92 114 195 181 206 353 17 203 64 256 319 194 78 13 348 339 41 54 45 44 35 22 329 240 215 216 206 209 210 202 209 232 219 176 142 134 139 137 123 116 79 48 81 61 67 48 47 34
121 66 158 193 162 192 23 57 283 318 337 352 10 74 7 357 8 34 16 12 9 7 3 345 302 244 234 212 202 199 215 220 236 239 159 133 150 147 145 136 132 54 68 72 91 68 70 54 40
81 106 213 192 194 140 94 138 297 17 3 349 349 53 24 31 41 47 32 11 3 354 351 357 342 285 238 210 189 195 190 208 218 206 171 149 159 156 162 144 131 83 81 72 102 89 80 53 33
151 164 193 236 210 168 151 232 220 174 25 241 317 34 23 32 40 40 28 18 348 328 337 344 340 329 288 216 185 166 168 182 236 211 142 151 124 162 135 137 151 129 108 97 91 93 60 53 35
100 166 182 292 152 152 238 182 260 183 72 74 79 80 51 39 35 24 11 360 351 342 334 333 335 324 293 266 184 163 149 149 189 356 167 152 150 149 163 161 156 157 147 144 139 127 98 61 34
143 271 167 261 278 261 35 243 250 9 95 82 67 51 43 37 27 18 3 354 346 349 338 335 329 325 302 249 158 130 132 135 157 159 110 191 176 161 163 155 162 178 162 181 159 135 122 73 17
174 278 276 264 218 216 191 163 129 98 112 66 60 50 42 39 22 14 12 0 358 344 344 334 336 328 293 215 123 110 104 83 49 24 29 182 301 222 184 178 191 182 188 147 175 167 160 222 326
109 312 318 285 286 217 154 122 75 51 98 72 57 56 45 32 25 21 360 357 353 346 336 349 348 346 74 120 86 69 55 52 44 39 28 17 17 357 336 280 225 231 148 146 132 132 170 158 226
58 51 345 314 351 347 170 228 179 329 134 77 63 51 54 42 27 11 4 2 357 354 354 356 9 37 58 64 65 65 57 57 46 40 37 33 31 30 35 27 22 16 28 16 38 23 339 330 336
8 220 220 315 28 151 134 247 94 355 87 80 60 50 52 43 28 15 9 5 4 0 1 14 19 38 69 77 80 75 70 62 54 46 40 32 38 38 56 45 35 34 45 58 53 58 10 13 357
193 201 240 234 235 131 190 270 87 38 79 90 87 71 59 51 27 12 11 7 11 12 20 28 36 33 56 76 76 72 67 60 50 42 39 34 34 34 50 55 43 39 63 42 28 79 46 83 302
135 169 209 213 244 323 251 256 49 81 77 89 78 73 64 51 10 31 25 14 22 37 38 30 35 23 48 64 80 65 71 62 54 48 43 42 38 36 34 46 42 37 48 41 47 50 35 51 320
148 159 237 283 207 173 341 263 93 67 80 110 114 83 63 47 25 19 19 20 23 28 36 46 42 37 39 62 75 75 85 68 60 50 46 41 39 36 42 38 37 39 47 39 27 20 358 22 3
203 186 194 212 262 80 345 281 197 100 128 128 119 127 102 80 52 22 24 20 20 30 17 33 47 59 56 63 86 90 79 63 61 47 51 40 47 45 45 45 43 41 35 38 35 26 33 6 17
203 200 170 158 124 229 101 271 263 181 173 183 169 162 156 138 116 74 48 39 29 25 17 30 48 60 56 58 72 75 85 87 71 72 65 53 43 46 44 45 46 44 41 38 31 31 30 23 23
222 129 148 132 129 87 245 140 257 137 217 200 203 192 190 168 154 132 94 81 60 39 36 31 52 59 60 68 82 92 94 93 85 70 65 52 50 45 41 41 42 44 39 34 34 31 33 32 28
147 83 54 56 82 271 215 179 251 195 198 177 181 188 185 173 158 139 112 86 70 42 43 34 70 59 55 70 73 86 94 92 83 66 66 49 45 39 38 38 41 41 37 32 28 27 30 23 29
190 116 132 352 252 230 74 163 256 220 191 186 182 185 186 174 162 164 145 127 108 93 88 87 73 73 66 84 87 89 90 91 88 81 72 67 53 41 32 35 35 33 31 30 22 25 20 17 15
187 171 165 198 198 223 6 224 248 137 344 269 165 169 174 177 172 172 169 157 150 131 114 109 107 105 95 98 90 94 100 91 89 86 83 73 68 57 45 42 42 34 29 25 21 16 6 358 357
183 191 148 105 57 79 211 275 253 149 123 100 152 165 189 184 180 181 173 174 163 156 155 148 136 123 118 116 117 105 99 97 95 84 80 77 60 50 36 33 28 22 21 18 10 2 351 344 343
161 152 94 1 187 244 262 265 237 212 192 162 179 188 190 187 184 185 185 182 176 169 155 163 156 150 145 132 120 110 102 95 99 96 81 75 69 51 39 31 23 15 8 0 357 349 337 331 328
150 167 77 125 151 173 233 250 215 211 175 186 193 192 190 190 188 193 188 183 181 170 170 170 161 154 158 152 137 128 127 115 101 88 78 66 57 38 33 20 12 6 358 353 341 334 327 325 321
196 181 167 159 214 243 161 254 151 230 192 182 193 195 192 189 193 188 184 178 185 185 171 175 178 177 174 158 152 140 134 127 110 97 91 75 61 45 34 17 4 359 353 347 340 332 329 326 324